TimeEST,TemperatureF,Dew PointF,Humidity,Sea Level PressureIn,VisibilityMPH,Wind Direction,Wind SpeedMPH,Gust SpeedMPH,PrecipitationIn,Events,Conditions,WindDirDegrees,DateUTC
12:54 AM,27.0,14.0,58,30.14,10.0,WSW,12.7,-,N/A,,Clear,240,2013-11-14 05:54:00
1:54 AM,28.0,15.1,58,30.12,10.0,SW,13.8,-,N/A,,Clear,230,2013-11-14 06:54:00
2:54 AM,28.0,16.0,61,30.12,10.0,SW,10.4,-,N/A,,Clear,230,2013-11-14 07:54:00
3:54 AM,28.9,16.0,58,30.09,10.0,WSW,15.0,-,N/A,,Clear,250,2013-11-14 08:54:00
4:54 AM,28.9,16.0,58,30.08,10.0,WSW,19.6,-,N/A,,Clear,250,2013-11-14 09:54:00
5:54 AM,28.9,17.1,61,30.08,10.0,WSW,17.3,-,N/A,,Clear,250,2013-11-14 10:54:00
6:54 AM,28.9,16.0,58,30.10,10.0,WSW,13.8,-,N/A,,Clear,250,2013-11-14 11:54:00
7:54 AM,30.9,16.0,54,30.10,10.0,WSW,12.7,-,N/A,,Clear,250,2013-11-14 12:54:00
8:54 AM,35.1,14.0,42,30.11,10.0,WSW,13.8,24.2,N/A,,Clear,250,2013-11-14 13:54:00
9:54 AM,37.9,14.0,38,30.11,10.0,West,13.8,24.2,N/A,,Clear,260,2013-11-14 14:54:00
10:54 AM,39.9,14.0,35,30.10,10.0,West,17.3,24.2,N/A,,Clear,280,2013-11-14 15:54:00
11:54 AM,43.0,17.1,35,30.08,10.0,West,18.4,25.3,N/A,,Clear,260,2013-11-14 16:54:00
12:54 PM,45.0,18.0,34,30.07,10.0,West,13.8,-,N/A,,Clear,260,2013-11-14 17:54:00
1:54 PM,46.9,19.0,33,30.06,10.0,West,12.7,-,N/A,,Clear,260,2013-11-14 18:54:00
2:54 PM,48.0,19.0,32,30.07,10.0,West,15.0,-,N/A,,Clear,260,2013-11-14 19:54:00
3:54 PM,46.0,19.0,34,30.08,10.0,WSW,12.7,-,N/A,,Clear,250,2013-11-14 20:54:00
4:54 PM,43.0,19.0,38,30.10,10.0,WSW,10.4,-,N/A,,Clear,240,2013-11-14 21:54:00
5:54 PM,42.1,18.0,38,30.11,10.0,WSW,13.8,-,N/A,,Clear,240,2013-11-14 22:54:00
6:54 PM,39.0,18.0,43,30.12,10.0,WSW,10.4,-,N/A,,Clear,240,2013-11-14 23:54:00
7:54 PM,37.0,17.1,44,30.12,10.0,SW,11.5,-,N/A,,Clear,230,2013-11-15 00:54:00
8:54 PM,37.0,15.1,41,30.13,10.0,WSW,11.5,-,N/A,,Clear,240,2013-11-15 01:54:00
9:54 PM,36.0,15.1,43,30.13,10.0,WSW,11.5,-,N/A,,Clear,240,2013-11-15 02:54:00
10:54 PM,36.0,15.1,43,30.13,10.0,WSW,11.5,-,N/A,,Clear,240,2013-11-15 03:54:00
11:54 PM,37.9,12.9,36,30.13,10.0,WSW,13.8,-,N/A,,Clear,250,2013-11-15 04:54:00